Location: Noordwijk
(52.2400°N, 4.4500°E)
Time: 05:12:19
(UTC+00:00)

CAS-4B - Pass Details

Date: 09 December 2022
Orbit: 515 x 531 km, 43.0° (Epoch: 28 January)

Event Time Altitude Azimuth Distance (km) Brightness Sun altitude
Exits shadow 05:47:00 10° 225° (SW) 1,794 ? -16.0°
Reaches altitude 10° 05:47:05 10° 224° (SW) 1,772 ? -16.0°
Maximum altitude 05:50:12 22° 174° (S) 1,204 ? -15.5°
Drops below altitude 10° 05:53:21 10° 123° (ESE) 1,782 ? -15.1°
Sets 05:55:58 0° 108° (ESE) 2,676 ? -14.7°
